User: anonymous   Login
Location: Unspecified
(0.0000°N, 0.0000°E)
Time: 19:10:44
(UTC+00:00)
Language:

DSP F17 - Orbit

View from above orbital plane
View from above orbital plane
View from above satellite
View from above satellite

Ground track
Ground track

The orbit data is extracted from the following two-line orbital elements,

1 23435U 94084A   21136.59724622 -.00000161  00000-0  00000-0 0  9991
2 23435  14.5842   9.0310 0001704  87.0515 256.9803  1.00274829 14320
Epoch (UTC): 16 May 2021 14:20:02
Eccentricity: 0.0001704
inclination: 14.5842°
perigee height: 35778 km
apogee height: 35792 km
right ascension of ascending node: 9.0310°
argument of perigee: 87.0515°
revolutions per day: 1.00274829
mean anomaly at epoch: 256.9803°
orbit number at epoch: 1432

The dashed part of the orbit path shows where the satellite is in the earth's shadow,  

DLR